Flag for Honduras Weather past 2 weeks in Choloma, Honduras

Now
82 °F

Partly sunny.


Feels Like: 89 °F
Forecast: 74 / 86 °F
Wind: 3 mph from South

Location: La Mesa San Pedro Sula

Current Time: Sep 30, 2014 at 8:58:48 AM

Latest Report: Sep 30, 2014 at 8:00 AM


Visibility: N/A

Pressure: 29.89 "Hg

Humidity: 79%

Dew point: 75 °F

Location of CholomaLocation

Historic Weather in Choloma — Graph

°F

Choloma temperature yesterday

Maximum temperature yesterday: 93 °F (at 1:00 PM)
Minimum temperature yesterday: 75 °F (at 5:00 AM)
Average temperature yesterday: 84 °F

Past Weeks' High & Low Weather Summary

 TemperatureHumidityPressure
High95 °F (Sep 19, 2:00 PM)100% (Sep 15, 9:00 PM)30.01 "Hg (Sep 15, 9:00 PM)
Low72 °F (Sep 21, 5:00 PM)44% (Sep 20, 1:00 PM)29.71 "Hg (Sep 27, 3:00 PM)
Average82 °F83%29.87 "Hg
* Reported Sep 15 7:00 AM — Sep 30 7:00 AM, Choloma, Weather by CustomWeather, © 2014

Note: Actual official high and low records may vary slightly from our data, if they occured in-between our weather recording intervals... More about our weather records

Advertising

Choloma weather history for previous 24 hours

 ConditionsComfort  
Time TempWeatherWind HumidityBarometerVisibility
7:00 AM
Sep 30
79 °FBroken clouds.7 mph89%29.86 "HgN/A
6:00 AM77 °FBroken clouds.No wind94%29.86 "HgN/A
5:00 AM77 °FPartly cloudy.No wind94%29.86 "HgN/A
4:00 AM79 °FPartly cloudy.No wind94%29.83 "HgN/A
3:00 AM77 °FPartly cloudy.No wind94%29.83 "HgN/A
2:00 AM79 °FPassing clouds.No wind94%29.83 "HgN/A
12:00 AM77 °FPassing clouds.No wind94%29.83 "HgN/A
11:00 PM
Sep 29
79 °FPassing clouds.No wind94%29.86 "HgN/A
10:00 PM81 °FPassing clouds.5 mph100%29.86 "HgN/A
9:00 PM81 °FPassing clouds.5 mph94%29.86 "HgN/A
8:00 PM81 °FPassing clouds.No wind94%29.83 "HgN/A
7:00 PM81 °FPartly cloudy.5 mph94%29.80 "HgN/A
6:00 PM82 °FPartly cloudy.7 mph89%29.77 "HgN/A
5:00 PM84 °FScattered clouds.7 mph79%29.77 "HgN/A
4:00 PM84 °FThunderstorms. Broken clouds.16 mph79%29.74 "HgN/A
3:00 PM93 °FBroken clouds.17 mph63%29.74 "HgN/A
2:00 PM93 °FScattered clouds.12 mph59%29.74 "HgN/A
1:00 PM93 °FBroken clouds.7 mph56%29.77 "HgN/A
12:00 PM91 °FBroken clouds.7 mph56%29.80 "HgN/A
11:00 AM91 °FBroken clouds.5 mph59%29.83 "HgN/A
10:00 AM90 °FPartly sunny.5 mph63%29.86 "HgN/A
9:00 AM86 °FPartly sunny.5 mph75%29.86 "HgN/A
8:00 AM84 °FPartly sunny.3 mph74%29.86 "HgN/A
Weather by CustomWeather, © 2014

See weather overviewHow to use our weather pages